Location: Krakow
(50.0830°N, 19.9170°E)
Time: 12:36:38
(UTC+02:00)

Tiros 1 - Pass Details

Date: 13 February 2023
Orbit: 627 x 662 km, 48.4° (Epoch: 26 March)

Event Time Altitude Azimuth Distance (km) Brightness Sun altitude
Rises 02:25:37 0° 280° (W) 2,917 - -42.2°
Reaches altitude 10° 02:28:23 10° 264° (W) 2,011 - -41.9°
Maximum altitude 02:31:48 21° 216° (SW) 1,437 - -41.4°
Drops below altitude 10° 02:35:14 10° 169° (SSE) 2,017 - -41.0°
Sets 02:38:02 0° 153° (SSE) 2,929 - -40.6°
